DateTimeUTC,F1_A11,F1_S11,BsB_S11,BsG_S11,BsR_S11,BbsB_S11,BbsG_S11,BbsR_S11,BaB_A11,BaG_A11,BaR_A11,T_S11,U_S11,P_S11,T1_A11
2020-02-01T00:00:00Z,00000380,21000600,,,,,,,,,,22.8,00.0,0608.5,30.9
2020-02-01T00:01:00Z,00000380,21000600,,,,,,,,,,22.8,00.0,0608.5,30.9
2020-02-01T00:02:00Z,00000380,21000600,,,,,,,,,,22.8,00.0,0608.5,30.9
2020-02-01T00:03:00Z,00000380,61000600,,,,,,,,,,22.8,00.0,0608.5,30.9
2020-02-01T00:04:00Z,00000380,41000600,0001.66,-000.25,0000.33,0000.02,-000.01,-000.10,0000.04,0000.12,-000.02,22.6,00.0,0609.2,30.8
2020-02-01T00:05:00Z,00000380,01000600,0000.15,0000.18,-000.16,0000.02,-000.21,0000.30,0000.15,0000.19,0000.33,22.5,00.0,0609.3,30.8
2020-02-01T00:06:00Z,00000380,01000600,0000.06,0000.21,0000.35,0000.20,0000.20,0000.30,0000.06,0000.15,-000.04,22.6,00.0,0609.3,30.8
2020-02-01T00:07:00Z,00000380,01000600,0000.32,0000.12,0000.27,0000.23,0000.53,0000.24,-000.03,-000.09,-000.05,22.6,00.0,0609.3,30.9
2020-02-01T00:08:00Z,00000380,01000600,-000.05,0000.53,0000.04,-000.14,0000.10,0000.59,0000.13,0000.14,0000.03,22.6,00.0,0609.3,30.9
2020-02-01T00:09:00Z,00000380,01000600,-000.03,0000.13,0000.32,0000.34,-000.44,-000.09,0000.04,0000.11,0000.09,22.6,00.0,0609.3,30.9
2020-02-01T00:10:00Z,00000380,01000600,-000.01,-000.12,0000.22,0000.36,-000.22,-000.13,0000.01,0000.07,0000.05,22.5,00.0,0609.3,30.9
2020-02-01T00:11:00Z,00000380,01000600,0000.43,0000.24,0000.14,-000.62,0000.19,0000.24,-000.02,-000.14,-000.13,22.5,00.0,0609.2,30.9
2020-02-01T00:12:00Z,00000380,01000600,-000.07,0000.27,-000.10,-000.13,0000.04,-000.03,0000.10,0000.23,0000.03,22.5,00.0,0609.1,30.9
2020-02-01T00:13:00Z,00000380,01000600,0000.80,-000.11,0000.37,-000.42,0000.38,-000.03,0000.14,0000.10,0000.15,22.5,00.0,0609.1,30.9
2020-02-01T00:14:00Z,00000380,01000600,0000.49,-000.09,0000.31,0000.23,0000.28,0000.23,-000.09,-000.03,-000.06,22.5,00.0,0609.1,30.9
2020-02-01T00:15:00Z,00000380,01000600,0000.32,0000.34,0000.20,0000.53,0000.40,0000.22,0000.15,0000.24,0000.17,22.5,00.0,0609.1,30.9
2020-02-01T00:16:00Z,00000380,01000600,0000.77,0000.00,-000.01,0000.60,0000.27,0000.08,-000.19,-000.08,-000.06,22.5,00.0,0609.1,30.9
2020-02-01T00:17:00Z,00000380,01000600,0000.31,-000.02,0000.21,0000.53,-000.39,0000.12,0000.06,-000.24,-000.05,22.5,00.0,0609.1,30.9
2020-02-01T00:18:00Z,00000380,01000600,0000.88,0000.37,0000.08,0000.60,0000.25,0000.23,0000.09,-000.06,-000.05,22.5,00.0,0609.1,30.9
2020-02-01T00:19:00Z,00000380,01000600,0000.74,-000.08,0000.04,0000.24,-000.09,0000.13,0000.15,0000.30,0000.15,22.5,00.0,0609.1,30.8
2020-02-01T00:20:00Z,00000380,01000600,0001.01,0000.65,0000.33,0000.29,0000.52,0000.20,-000.03,0000.14,-000.02,22.5,00.0,0609.1,30.9
2020-02-01T00:21:00Z,00000380,01000600,0000.59,0000.30,-000.17,0000.89,0000.01,-000.04,0000.01,-000.23,0000.05,22.5,00.0,0609.1,30.9
2020-02-01T00:22:00Z,00000380,01000600,0001.13,0000.15,0000.08,0000.68,0000.40,0000.24,0000.04,0000.05,0000.18,22.5,00.0,0609.1,30.9
2020-02-01T00:23:00Z,00000380,01000600,0000.16,0000.72,0000.25,-000.04,0000.28,0000.32,0000.06,0000.13,-000.04,22.5,00.0,0609.1,30.9
2020-02-01T00:24:00Z,00000380,01000600,0000.12,0000.35,-000.04,0000.13,0000.04,0000.49,-000.08,-000.15,-000.09,22.5,00.0,0609.1,30.9
2020-02-01T00:25:00Z,00000380,01000600,-000.24,0000.79,-000.27,-000.42,-000.09,-000.18,0000.09,0000.27,-000.04,22.5,00.0,0609.0,30.9
2020-02-01T00:26:00Z,00000380,01000600,-000.26,-000.48,0000.32,-000.86,-000.06,0000.21,0000.53,0000.22,0000.31,22.5,00.0,0609.0,30.9
2020-02-01T00:27:00Z,00000380,01000600,0001.20,0000.14,-000.02,0000.38,0000.04,-000.06,0000.01,0000.16,0000.06,22.5,00.0,0608.9,30.9
2020-02-01T00:28:00Z,00000380,01000600,0000.68,0000.26,0000.32,-000.33,0000.12,0000.39,-000.27,-000.28,-000.12,22.5,00.0,0608.9,30.9
2020-02-01T00:29:00Z,00000380,01000600,0001.08,-000.10,0000.10,0000.41,0000.47,0000.58,-000.16,-000.02,-000.09,22.5,00.0,0608.9,30.9
2020-02-01T00:30:00Z,00000380,01000600,0000.70,0000.29,0000.59,-000.11,0000.49,0000.30,0000.17,0000.21,-000.01,22.5,00.0,0608.9,30.9
2020-02-01T00:31:00Z,00000380,01000600,0000.14,0000.28,0000.37,0000.59,-000.16,0000.23,-000.10,-000.02,0000.05,22.5,00.0,0608.9,30.9
2020-02-01T00:32:00Z,00000380,01000600,0001.49,0000.32,-000.43,0000.70,0000.30,0000.38,0000.12,-000.00,0000.16,22.5,00.0,0608.9,30.9
2020-02-01T00:33:00Z,00000380,01000600,-000.12,0000.21,0000.15,0000.58,0000.29,0000.66,-000.09,-000.28,-000.17,22.4,00.0,0608.9,30.9
2020-02-01T00:34:00Z,00000380,01000600,0000.55,0000.05,0000.18,0000.53,0000.06,0000.33,-000.02,-000.11,-000.10,22.4,00.0,0608.9,30.8
2020-02-01T00:35:00Z,00000380,01000600,0000.29,0000.31,-000.11,-000.11,0000.06,0000.23,0000.21,0000.31,0000.21,22.5,00.0,0608.9,30.8
2020-02-01T00:36:00Z,00000380,01000600,-000.19,0000.32,0000.31,-000.44,-000.12,0000.38,-000.12,0000.06,0000.05,22.5,00.0,0608.9,30.8
2020-02-01T00:37:00Z,00000380,01000600,0000.73,-000.04,-000.12,0000.80,0000.10,0000.28,-000.01,-000.07,-000.04,22.5,00.0,0608.9,30.9
2020-02-01T00:38:00Z,00000380,01000600,0000.64,0000.42,-000.19,0000.82,0000.20,0000.07,0000.18,0000.15,0000.12,22.5,00.0,0608.9,30.9
2020-02-01T00:39:00Z,00000380,01000600,0000.51,0000.28,0000.02,0001.11,0000.52,0000.00,-000.03,0000.13,0000.01,22.5,00.0,0608.9,30.9
2020-02-01T00:40:00Z,00000380,01000600,0000.72,0000.45,-000.08,0000.12,0000.19,0000.12,0000.25,0000.12,0000.19,22.5,00.0,0608.9,30.9
2020-02-01T00:41:00Z,00000380,01000600,0000.40,0000.36,0000.10,-000.01,0000.29,0000.36,0000.05,0000.15,-000.01,22.5,00.0,0608.9,30.9
2020-02-01T00:42:00Z,00000380,01000600,0001.22,0000.10,0000.58,0000.09,0000.11,0000.33,-000.18,-000.10,-000.00,22.6,00.0,0608.9,30.9
2020-02-01T00:43:00Z,00000380,01000600,-000.21,0000.72,0000.40,-000.06,0000.04,0000.30,0000.08,0000.16,0000.15,22.5,00.0,0608.9,30.9
2020-02-01T00:44:00Z,00000380,01000600,0000.07,0000.27,0000.27,0000.28,0000.12,0000.11,0000.13,-000.13,-000.15,22.5,00.0,0608.9,30.9
2020-02-01T00:45:00Z,00000380,01000600,0001.00,0000.62,0000.40,0000.15,0000.64,0000.12,-000.02,0000.11,0000.17,22.6,00.0,0608.9,30.9
2020-02-01T00:46:00Z,00000380,01000600,0000.67,-000.38,0000.02,0000.64,0000.18,-000.03,0000.15,0000.12,-000.02,22.5,00.0,0608.9,30.9
2020-02-01T00:47:00Z,00000380,01000600,0000.20,0000.15,0000.04,0000.01,0000.08,0000.20,-000.15,-000.22,-000.09,22.5,00.0,0608.8,30.9
2020-02-01T00:48:00Z,00000380,01000600,0000.23,0000.24,-000.02,0000.19,0000.22,-000.25,-000.10,-000.10,-000.14,22.6,00.0,0608.8,30.9
2020-02-01T00:49:00Z,00000380,01000600,-000.38,-000.09,-000.36,0000.57,-000.06,0000.10,0000.14,-000.04,0000.25,22.6,00.0,0608.8,30.9
2020-02-01T00:50:00Z,00000380,01000600,0000.97,0000.25,-000.17,-000.89,-000.33,0000.00,0000.10,0000.05,-000.05,22.6,00.0,0608.7,30.9
2020-02-01T00:51:00Z,00000380,01000600,0000.57,0000.03,0000.13,-000.22,-000.25,0000.27,-000.04,0000.27,0000.14,22.6,00.0,0608.7,30.9
2020-02-01T00:52:00Z,00000380,01000600,0000.81,0000.23,0000.14,0000.36,0000.31,0000.42,0000.09,0000.00,-000.05,22.6,00.0,0608.7,30.9
2020-02-01T00:53:00Z,00000380,01000600,0000.77,0000.05,0000.31,0000.78,-000.38,-000.19,0000.06,0000.18,0000.01,22.6,00.0,0608.7,30.9
2020-02-01T00:54:00Z,00000380,01000600,0000.58,0000.17,-000.17,-000.42,0000.25,0000.17,0000.04,-000.21,-000.09,22.6,00.0,0608.7,30.9
2020-02-01T00:55:00Z,00000380,01000600,0000.93,0000.59,0000.50,0001.12,0000.18,0000.37,0000.05,0000.22,-000.00,22.6,00.0,0608.7,30.9
2020-02-01T00:56:00Z,00000380,01000600,0000.99,-000.04,0000.14,-000.26,0000.31,0000.21,0000.04,-000.04,0000.16,22.7,00.0,0608.6,30.9
2020-02-01T00:57:00Z,00000380,41000600,,,,,,,,,,22.7,00.0,0608.6,30.9
2020-02-01T00:58:00Z,00000380,61000600,,,,,,,,,,22.8,00.0,0607.7,30.9
2020-02-01T00:59:00Z,00000380,21000600,,,,,,,,,,22.9,00.0,0607.7,30.9
2020-02-01T01:00:00Z,00000380,21000600,,,,,,,,,,22.9,00.0,0607.7,30.9
2020-02-01T01:01:00Z,00000380,21000600,,,,,,,,,,22.9,00.0,0607.7,30.9
2020-02-01T01:02:00Z,00000380,21000600,,,,,,,,,,22.9,00.0,0607.8,30.9
2020-02-01T01:03:00Z,00000380,61000600,,,,,,,,,,22.9,00.0,0607.8,30.9
2020-02-01T01:04:00Z,00000380,41000600,0000.30,-000.02,0000.14,0000.18,-000.01,0000.05,0000.13,0000.17,0000.02,22.8,00.0,0608.7,30.9
2020-02-01T01:05:00Z,00000380,01000600,0000.17,0000.08,-000.08,0000.04,-000.28,-000.10,-000.02,0000.18,-000.06,22.8,00.0,0608.8,30.9
2020-02-01T01:06:00Z,00000380,01000600,0000.95,0000.32,0000.09,0001.21,-000.06,-000.21,-000.05,-000.15,0000.02,22.8,00.0,0608.9,30.9
2020-02-01T01:07:00Z,00000380,01000600,-000.13,0000.01,-000.37,0000.71,-000.10,-000.09,0000.04,-000.14,0000.06,22.8,00.0,0608.9,30.9
2020-02-01T01:08:00Z,00000380,01000600,-000.49,0000.60,-000.28,0000.28,-000.62,-000.02,0000.11,0000.42,0000.08,22.7,00.0,0608.9,30.9
2020-02-01T01:09:00Z,00000380,01000600,0000.03,0000.51,-000.48,0001.10,-000.16,0000.08,0000.05,0000.13,0000.01,22.8,00.0,0608.9,30.9
2020-02-01T01:10:00Z,00000380,01000600,0000.32,-000.10,-000.17,0000.15,0000.22,-000.40,-000.10,-000.14,0000.06,22.8,00.0,0608.9,30.9
2020-02-01T01:11:00Z,00000380,01000600,0000.56,-000.15,0000.12,0000.79,0000.36,-000.09,0000.02,-000.10,0000.00,22.8,00.0,0608.9,30.9
2020-02-01T01:12:00Z,00000380,01000600,0000.24,0000.20,-000.25,0000.69,-000.09,0000.19,0000.10,0000.10,-000.10,22.8,00.0,0608.9,30.9
2020-02-01T01:13:00Z,00000380,01000600,0000.60,0000.25,0000.17,0000.07,0000.06,0000.14,-000.03,-000.03,0000.07,22.8,00.0,0608.9,30.9
2020-02-01T01:14:00Z,00000380,01000600,0000.35,-000.10,-000.00,0000.23,-000.23,-000.57,0000.03,0000.06,0000.04,22.8,00.0,0608.9,30.9
2020-02-01T01:15:00Z,00000380,01000600,0000.66,0000.42,0000.07,-000.05,-000.04,-000.02,0000.13,0000.12,0000.02,22.7,00.0,0608.9,30.9
2020-02-01T01:16:00Z,00000380,01000600,0000.59,-000.15,0000.22,0000.71,-000.24,-000.00,-000.10,-000.13,0000.05,22.8,00.0,0608.9,30.9
2020-02-01T01:17:00Z,00000380,01000600,-000.35,0000.14,-000.06,-000.36,-000.42,0000.16,-000.02,-000.07,-000.04,22.8,00.0,0608.9,30.9
2020-02-01T01:18:00Z,00000380,01000600,0000.47,-000.08,-000.17,0000.48,-000.02,-000.16,-000.02,0000.16,0000.01,22.8,00.0,0608.9,30.9
2020-02-01T01:19:00Z,00000380,01000600,0000.85,-000.27,0000.03,0000.04,-000.35,0000.30,0000.05,0000.00,0000.15,22.7,00.0,0608.9,30.9
2020-02-01T01:20:00Z,00000380,01000600,0000.54,-000.10,0000.29,-000.80,-000.05,0000.01,0000.03,0000.12,0000.03,22.7,00.0,0608.9,30.9
2020-02-01T01:21:00Z,00000380,01000600,0000.31,0000.07,0000.41,0000.10,-000.30,-000.02,0000.13,-000.13,-000.06,22.7,00.0,0608.9,30.9
2020-02-01T01:22:00Z,00000380,01000600,-000.01,0000.04,-000.06,0000.61,0000.17,-000.53,-000.17,0000.08,0000.08,22.7,00.0,0608.9,30.9
2020-02-01T01:23:00Z,00000380,01000600,0000.41,0000.22,0000.24,0000.96,0000.12,0000.02,0000.20,0000.03,-000.19,22.7,00.0,0608.9,30.9
2020-02-01T01:24:00Z,00000380,01000600,0000.70,0000.17,-000.02,0000.32,-000.07,-000.55,-000.08,-000.04,0000.02,22.7,00.0,0608.8,30.9
2020-02-01T01:25:00Z,00000380,01000600,0000.06,0000.11,-000.39,0000.39,0000.06,-000.11,-000.01,0000.20,-000.04,22.7,00.0,0608.8,30.9
2020-02-01T01:26:00Z,00000380,01000600,-000.11,-000.11,-000.14,0000.12,-000.09,0000.15,-000.04,-000.03,0000.22,22.7,00.0,0608.9,30.9
2020-02-01T01:27:00Z,00000380,01000600,0000.18,0000.05,-000.21,0000.78,-000.05,-000.06,0000.02,-000.26,-000.02,22.7,00.0,0608.9,30.9
2020-02-01T01:28:00Z,00000380,01000600,0000.28,0000.02,0000.00,-000.28,-000.05,-000.23,0000.19,0000.21,-000.00,22.7,00.0,0608.9,30.9
2020-02-01T01:29:00Z,00000380,01000600,0000.99,0000.24,-000.08,0001.17,-000.38,-000.43,-000.15,-000.03,-000.03,22.7,00.0,0608.9,30.9
2020-02-01T01:30:00Z,00000380,01000600,0000.70,0000.67,0000.11,0001.31,-000.39,0000.08,0000.05,-000.02,-000.02,22.7,00.0,0608.9,30.9
2020-02-01T01:31:00Z,00000380,01000600,0000.08,-000.05,0000.19,0000.15,-000.29,0000.12,0000.04,0000.01,0000.07,22.7,00.0,0608.9,30.9
2020-02-01T01:32:00Z,00000380,01000600,0000.60,0000.05,-000.27,0000.92,-000.03,-000.28,-000.22,-000.15,-000.05,22.7,00.0,0608.9,30.9
2020-02-01T01:33:00Z,00000380,01000600,0001.27,0000.25,-000.05,-000.06,0000.02,-000.30,0000.02,-000.15,-000.09,22.6,00.0,0608.9,30.9
2020-02-01T01:34:00Z,00000380,01000600,0000.62,0000.50,-000.24,0000.60,-000.34,-000.01,0000.16,0000.05,0000.08,22.7,00.0,0608.9,30.9
2020-02-01T01:35:00Z,00000380,01000600,-000.14,0000.08,-000.22,0000.97,-000.13,-000.02,0000.05,0000.08,0000.03,22.7,00.0,0609.0,30.9
2020-02-01T01:36:00Z,00000380,01000600,0000.05,0000.15,-000.27,0000.10,-000.15,0000.11,0000.00,0000.09,0000.19,22.7,00.0,0609.0,30.9
2020-02-01T01:37:00Z,00000380,01000600,0000.87,0000.43,-000.17,0000.40,-000.00,-000.05,-000.20,-000.16,-000.14,22.7,00.0,0609.0,30.9
2020-02-01T01:38:00Z,00000380,01000600,0000.30,0000.70,-000.02,-000.32,-000.24,-000.12,0000.16,0000.25,0000.00,22.7,00.0,0609.1,30.9
2020-02-01T01:39:00Z,00000380,01000600,0000.67,0000.01,-000.32,0000.20,0000.03,-000.21,-000.00,-000.01,0000.11,22.7,00.0,0609.1,30.9
2020-02-01T01:40:00Z,00000380,01000600,0000.47,-000.21,-000.10,0000.07,-000.45,0000.00,-000.02,-000.03,-000.06,22.7,00.0,0609.1,30.9
2020-02-01T01:41:00Z,00000380,01000600,0000.22,0000.40,-000.07,0000.07,-000.15,0000.32,0000.00,-000.05,0000.10,22.7,00.0,0609.1,30.9
2020-02-01T01:42:00Z,00000380,01000600,-000.44,0000.28,0000.43,0000.56,0000.22,0000.14,-000.02,-000.10,-000.07,22.7,00.0,0609.1,30.9
2020-02-01T01:43:00Z,00000380,01000600,0000.07,0000.09,0000.61,0000.47,0000.01,0000.07,-000.13,0000.08,-000.07,22.7,00.0,0609.1,30.9
2020-02-01T01:44:00Z,00000380,01000600,-000.01,-000.50,0000.49,0000.31,-000.15,0000.08,0000.02,0000.15,-000.07,22.7,00.0,0609.1,30.9
2020-02-01T01:45:00Z,00000380,01000600,0001.33,-000.20,0000.07,0000.88,0000.23,0000.20,0000.15,-000.08,0000.07,22.7,00.0,0609.2,30.9
2020-02-01T01:46:00Z,00000380,01000600,0000.65,-000.54,-000.18,-000.20,0000.02,0000.40,-000.02,-000.04,0000.01,22.7,00.0,0609.1,30.9
2020-02-01T01:47:00Z,00000380,01000600,0000.98,0000.20,0000.10,0001.06,0000.07,-000.09,-000.13,-000.06,-000.08,22.7,00.0,0609.1,30.9
2020-02-01T01:48:00Z,00000380,01000600,0001.29,-000.06,0000.19,0000.56,-000.30,0000.12,-000.13,-000.11,0000.08,22.7,00.0,0609.1,30.9
2020-02-01T01:49:00Z,00000380,01000600,0000.31,-000.17,0000.44,0000.84,-000.02,-000.21,0000.15,0000.03,-000.06,22.7,00.0,0609.1,30.9
2020-02-01T01:50:00Z,00000380,01000600,0000.34,0000.29,0000.05,0000.59,-000.36,0000.15,0000.05,0000.10,0000.11,22.7,00.0,0609.1,30.9
2020-02-01T01:51:00Z,00000380,01000600,0001.21,0000.51,0000.53,0000.22,0000.26,0000.26,0000.05,0000.07,-000.03,22.8,00.0,0609.2,30.9
2020-02-01T01:52:00Z,00000380,01000600,0000.67,0000.37,0000.10,0000.27,-000.01,-000.12,-000.05,-000.10,0000.10,22.8,00.0,0609.2,30.9
2020-02-01T01:53:00Z,00000380,01000600,0000.65,0000.22,-000.07,-000.07,-000.20,-000.12,0000.04,0000.17,0000.07,22.8,00.0,0609.2,30.9
2020-02-01T01:54:00Z,00000380,01000600,0000.46,-000.37,0000.08,-001.03,0000.09,-000.33,0000.05,0000.22,-000.03,22.8,00.0,0609.2,30.9
2020-02-01T01:55:00Z,00000380,01000600,-000.75,0000.32,0000.37,0000.48,0000.00,-000.08,-000.03,-000.09,-000.12,22.8,00.0,0609.2,30.9
2020-02-01T01:56:00Z,00000380,01000600,0000.76,0000.02,0000.38,0000.47,-000.22,0000.27,0000.01,0000.08,0000.14,22.8,00.0,0609.2,30.9
2020-02-01T01:57:00Z,00000380,41000600,,,,,,,,,,22.9,00.0,0609.2,30.9
2020-02-01T01:58:00Z,00000380,61000600,,,,,,,,,,23.0,00.0,0608.2,30.9
2020-02-01T01:59:00Z,00000380,21000600,,,,,,,,,,23.1,00.0,0608.2,30.9
2020-02-01T02:00:00Z,00000380,21000600,,,,,,,,,,23.1,00.0,0608.2,30.9
2020-02-01T02:01:00Z,00000380,21000600,,,,,,,,,,23.1,00.0,0608.2,30.9
2020-02-01T02:02:00Z,00000380,21000600,,,,,,,,,,23.1,00.0,0608.2,30.9
2020-02-01T02:03:00Z,00000380,61000600,,,,,,,,,,23.1,00.0,0608.2,30.9
2020-02-01T02:04:00Z,00000380,41000600,0000.81,-000.09,0000.61,-000.67,-000.21,0000.01,-000.11,0000.04,-000.24,22.9,00.0,0608.9,30.9
2020-02-01T02:05:00Z,00000380,01000600,0001.24,-000.17,-000.01,-000.18,0000.11,-000.02,0000.15,-000.02,0000.05,22.9,00.0,0609.0,30.9
2020-02-01T02:06:00Z,00000380,01000600,0001.21,-000.29,-000.33,0000.11,0000.47,-000.55,0000.14,0000.20,0000.35,22.9,00.0,0609.0,30.9
2020-02-01T02:07:00Z,00000380,01000600,-000.11,0000.37,-000.15,0000.54,0000.30,-000.21,-000.03,-000.07,-000.17,22.9,00.0,0609.0,30.9
2020-02-01T02:08:00Z,00000380,01000600,0000.78,0000.35,0000.39,-000.19,0000.39,-000.17,-000.00,-000.01,-000.11,22.9,00.0,0608.9,30.9
2020-02-01T02:09:00Z,00000380,01000600,0000.01,-000.23,0000.25,-000.96,-000.17,0000.12,0000.02,0000.17,0000.14,22.8,00.0,0608.9,30.9
2020-02-01T02:10:00Z,00000380,01000600,-000.01,-000.01,0000.90,-000.10,0000.20,0000.23,-000.06,0000.04,-000.03,22.8,00.0,0608.9,30.9
2020-02-01T02:11:00Z,00000380,01000600,-000.05,0000.48,-000.16,0000.13,0000.32,0000.20,0000.01,-000.10,-000.00,22.8,00.0,0608.9,30.9
2020-02-01T02:12:00Z,00000380,01000600,0000.38,0000.01,0000.20,-000.07,-000.21,0000.03,0000.12,0000.03,0000.05,22.8,00.0,0608.9,30.9
2020-02-01T02:13:00Z,00000380,01000600,0000.94,0000.36,0000.10,0000.25,0000.07,0000.24,0000.06,0000.15,0000.04,22.8,00.0,0608.8,30.9
2020-02-01T02:14:00Z,00000380,01000600,0000.52,-000.11,0000.12,0000.65,0000.51,-000.13,0000.03,0000.05,0000.12,22.8,00.0,0608.8,30.9
2020-02-01T02:15:00Z,00000380,01000600,0000.71,0000.07,-000.08,-000.02,0000.40,0000.27,0000.02,-000.03,-000.13,22.8,00.0,0608.8,30.9
2020-02-01T02:16:00Z,00000380,01000600,0000.23,-000.09,0000.24,0000.30,0000.03,-000.18,-000.05,-000.10,-000.02,22.8,00.0,0608.8,30.9
2020-02-01T02:17:00Z,00000380,01000600,0000.11,0000.14,0000.26,0000.51,0000.53,-000.11,-000.04,0000.03,0000.00,22.8,00.0,0608.8,30.9
2020-02-01T02:18:00Z,00000380,01000600,0000.01,0000.30,-000.14,-000.27,0000.24,-000.11,0000.03,-000.19,-000.01,22.8,00.0,0608.8,30.9
2020-02-01T02:19:00Z,00000380,01000600,0000.88,-000.55,0000.32,0000.24,0000.04,-000.05,0000.03,-000.00,0000.14,22.8,00.0,0608.8,30.9
2020-02-01T02:20:00Z,00000380,01000600,-000.08,0000.72,0000.35,0001.28,0000.09,0000.17,0000.22,0000.21,0000.09,22.8,00.0,0608.8,30.9
2020-02-01T02:21:00Z,00000380,01000600,0000.26,0000.20,0000.32,0000.18,0000.13,-000.10,-000.11,0000.17,-000.11,22.8,00.0,0608.8,30.9
2020-02-01T02:22:00Z,00000380,01000600,0000.27,0000.35,0000.30,0000.16,-000.23,0000.26,-000.05,-000.14,-000.09,22.8,00.0,0608.8,30.9
2020-02-01T02:23:00Z,00000380,01000600,0000.29,-000.24,0000.88,0000.11,0000.03,0000.08,0000.20,0000.16,0000.18,22.8,00.0,0608.8,30.9
2020-02-01T02:24:00Z,00000380,01000600,0000.63,-000.14,-000.18,-000.66,0000.16,0000.02,-000.00,0000.07,0000.03,22.8,00.0,0608.8,30.9
2020-02-01T02:25:00Z,00000380,01000600,-000.24,-000.23,0000.11,0000.57,0000.32,0000.17,0000.01,0000.05,0000.05,22.8,00.0,0608.8,30.9
2020-02-01T02:26:00Z,00000380,01000600,0001.25,0000.10,0000.64,0000.50,0000.11,0000.17,0000.05,0000.06,-000.02,22.8,00.0,0608.8,30.9
2020-02-01T02:27:00Z,00000380,01000600,-000.19,0000.09,0000.29,0001.08,0000.44,-000.02,0000.09,-000.11,0000.02,22.8,00.0,0608.8,30.9
2020-02-01T02:28:00Z,00000380,01000600,-000.15,-000.01,0000.29,0000.30,0000.49,-000.15,-000.02,0000.16,-000.17,22.8,00.0,0608.8,30.9
2020-02-01T02:29:00Z,00000380,01000600,0000.24,0000.72,-000.14,-000.12,0000.10,0000.04,0000.00,0000.16,0000.36,22.8,00.0,0608.7,30.9
2020-02-01T02:30:00Z,00000380,01000600,0000.88,0000.11,-000.17,0000.60,-000.10,-000.12,0000.03,-000.16,-000.28,22.8,00.0,0608.7,30.9
2020-02-01T02:31:00Z,00000380,01000600,-000.78,0000.48,-000.16,0000.23,-000.07,-000.01,0000.15,0000.20,0000.28,22.8,00.0,0608.7,30.9
2020-02-01T02:32:00Z,00000380,01000600,0000.24,0000.50,-000.00,0000.62,0000.08,-000.14,-000.00,-000.11,-000.14,22.8,00.0,0608.7,30.9
2020-02-01T02:33:00Z,00000380,01000600,0000.53,-000.22,-000.09,0000.37,0000.18,0000.14,-000.11,-000.21,0000.10,22.8,00.0,0608.7,30.9
2020-02-01T02:34:00Z,00000380,01000600,0001.12,-000.06,0000.47,-000.67,-000.02,0000.35,0000.01,-000.03,-000.11,22.7,00.0,0608.7,30.9
2020-02-01T02:35:00Z,00000380,01000600,0000.86,0000.37,-000.14,0000.20,-000.08,0000.26,0000.24,0000.19,0000.22,22.8,00.0,0608.8,30.9
2020-02-01T02:36:00Z,00000380,01000600,0000.80,0000.62,0000.06,-000.03,-000.22,0000.30,-000.05,0000.08,-000.01,22.8,00.0,0608.8,30.9
2020-02-01T02:37:00Z,00000380,01000600,0000.43,0000.42,0000.63,0000.58,0000.33,0000.61,0000.11,0000.07,0000.00,22.8,00.0,0608.8,30.9
2020-02-01T02:38:00Z,00000380,01000600,0000.80,0001.04,-000.02,0000.66,0000.20,0000.09,0000.08,0000.14,0000.15,22.8,00.0,0608.8,30.9
2020-02-01T02:39:00Z,00000380,01000600,-000.54,0000.35,0000.20,-000.25,-000.18,-000.34,0000.01,0000.19,-000.15,22.8,00.0,0608.9,30.9
2020-02-01T02:40:00Z,00000380,01000600,0000.02,0000.15,0000.08,0000.03,0000.15,-000.02,0000.01,-000.16,0000.10,22.8,00.0,0608.9,30.9
2020-02-01T02:41:00Z,00000380,01000600,0001.01,0000.01,0000.20,-000.29,0000.16,-000.05,-000.02,0000.02,-000.02,22.8,00.0,0608.9,30.9
2020-02-01T02:42:00Z,00000380,01000600,0000.53,0000.65,0000.08,-000.30,-000.01,-000.12,0000.07,0000.03,0000.14,22.8,00.0,0608.9,30.9
2020-02-01T02:43:00Z,00000380,01000600,0000.63,0000.10,-000.17,-000.08,0000.23,0000.14,0000.00,0000.21,-000.04,22.8,00.0,0608.9,30.9
2020-02-01T02:44:00Z,00000380,01000600,-000.94,0000.48,0000.07,-000.27,0000.19,0000.42,0000.07,-000.12,0000.05,22.8,00.0,0608.8,30.9
2020-02-01T02:45:00Z,00000380,01000600,0000.41,0000.24,0000.29,0000.16,0000.09,0000.08,-000.02,-000.03,-000.05,22.8,00.0,0608.8,30.9
2020-02-01T02:46:00Z,00000380,01000600,0000.02,0000.16,0000.43,-000.38,0000.21,0000.21,0000.02,-000.10,-000.11,22.8,00.0,0608.8,30.9
2020-02-01T02:47:00Z,00000380,01000600,0001.20,0000.74,0000.12,0000.16,0000.07,0000.04,0000.10,0000.06,0000.19,22.8,00.0,0608.8,30.9
2020-02-01T02:48:00Z,00000380,01000600,0001.16,0000.02,0000.07,-000.24,0000.22,0000.21,-000.09,-000.06,-000.25,22.8,00.0,0608.8,30.9
2020-02-01T02:49:00Z,00000380,01000600,0001.11,0000.34,0000.18,-000.79,-000.23,0000.32,-000.05,0000.18,0000.16,22.8,00.0,0608.7,30.9
2020-02-01T02:50:00Z,00000380,01000600,0000.27,0000.51,0000.04,0000.10,0000.26,0000.41,0000.15,0000.19,0000.12,22.8,00.0,0608.8,30.9
2020-02-01T02:51:00Z,00000380,01000600,-000.54,0000.29,0000.16,0000.70,0000.34,0000.10,-000.10,-000.31,-000.11,22.8,00.0,0608.8,30.9
2020-02-01T02:52:00Z,00000380,01000600,0000.23,-000.05,0000.83,-000.55,0000.07,0000.27,0000.15,0000.21,0000.10,22.8,00.0,0608.8,30.9
2020-02-01T02:53:00Z,00000380,01000600,0000.58,0000.22,0000.45,-000.16,0000.40,0000.29,0000.01,-000.15,-000.15,22.8,00.0,0608.9,30.9
2020-02-01T02:54:00Z,00000380,01000600,-000.02,-000.10,-000.11,0000.65,-000.07,0000.16,-000.11,-000.08,0000.02,22.8,00.0,0608.9,30.9
2020-02-01T02:55:00Z,00000380,01000600,0000.59,-000.07,0000.16,-000.10,0000.24,-000.41,0000.20,0000.18,-000.03,22.8,00.0,0608.9,30.9
2020-02-01T02:56:00Z,00000380,01000600,-000.10,0000.23,0000.40,-000.50,-000.44,0000.44,-000.15,0000.07,0000.15,22.8,00.0,0608.9,30.9
2020-02-01T02:57:00Z,00000380,41000600,,,,,,,,,,22.9,00.0,0608.9,30.9
2020-02-01T02:58:00Z,00000380,61000600,,,,,,,,,,22.9,00.0,0608.0,30.9
2020-02-01T02:59:00Z,00000380,21000600,,,,,,,,,,23.0,00.0,0608.0,30.9
2020-02-01T03:00:00Z,00000380,21000600,,,,,,,,,,23.0,00.0,0608.0,30.9
2020-02-01T03:01:00Z,00000380,21000600,,,,,,,,,,23.0,00.0,0608.0,30.9
2020-02-01T03:02:00Z,00000380,21000600,,,,,,,,,,23.1,00.0,0608.0,30.9
2020-02-01T03:03:00Z,00000380,61000600,,,,,,,,,,23.1,00.0,0608.0,30.9
2020-02-01T03:04:00Z,00000380,41000600,0000.61,0000.10,0000.09,-000.03,0000.13,0000.38,0000.25,0000.27,0000.11,22.9,00.0,0608.8,30.9
2020-02-01T03:05:00Z,00000380,01000600,0000.07,-000.05,-000.10,-000.59,0000.48,-000.21,0000.13,0000.26,0000.12,22.9,00.0,0608.8,30.9
2020-02-01T03:06:00Z,00000380,01000600,0000.42,0000.26,-000.20,-000.07,-000.09,0000.13,-000.19,-000.34,-000.06,22.8,00.0,0608.8,30.9
2020-02-01T03:07:00Z,00000380,01000600,0000.22,0000.45,-000.25,-000.31,0000.09,0000.06,-000.02,0000.27,0000.01,22.8,00.0,0608.8,30.9
2020-02-01T03:08:00Z,00000380,01000600,0000.68,-000.01,-000.04,-000.51,-000.02,-000.12,0000.17,0000.14,0000.09,22.8,00.0,0608.8,30.9
2020-02-01T03:09:00Z,00000380,01000600,-001.25,0000.64,0000.33,0000.04,-000.27,0000.15,0000.00,-000.05,-000.10,22.8,00.0,0608.8,30.9
2020-02-01T03:10:00Z,00000380,01000600,0000.32,0000.36,0000.25,0000.20,-000.17,-000.02,-000.08,-000.05,0000.03,22.8,00.0,0608.8,30.9